RH
35 35 36 35 35 35 34 33 31 30 28 31 37 39 42 42 45 48 45 40 37 38 39 40 41 42 41 37 28 19 15 13 12 12 11 12 12 12 11 11 12 13 14 13 12 11 10 10 11 11 11 12 14 16 17 17 17 18 24 22 18 19 18 17 16 15 14 14 12 10 10 10 10 9 9 9 9 10 10 11 11 12 12 11 12 13 12 12
35 36 36 36 35 34 33 32 32 29 27 33 38 39 40 39 42 44 40 36 34 37 40 39 39 38 37 32 24 18 16 14 13 12 11 12 12 12 12 13 13 14 13 12 11 10 10 10 11 11 11 13 15 17 16 16 16 19 24 21 20 22 17 15 15 13 13 11 12 11 9 9 9 9 9 9 10 10 11 11 11 11 11 11 11 13 13 12
35 36 37 36 35 34 34 34 32 29 28 35 38 38 39 38 41 42 38 36 35 36 37 37 36 34 32 26 21 18 15 13 13 11 11 12 12 13 13 14 13 13 12 11 10 10 10 10 10 10 11 14 15 16 15 15 15 17 19 18 22 23 16 14 14 12 12 12 12 11 10 9 8 8 9 9 10 10 11 11 11 12 11 10 11 13 13 13
36 38 36 35 35 35 35 32 30 28 31 38 39 38 38 38 41 41 39 36 34 34 34 34 32 29 26 22 19 17 15 13 13 12 12 12 13 13 14 14 13 11 11 10 11 10 10 10 10 11 12 15 15 15 15 15 15 15 17 19 21 20 15 13 13 12 12 12 12 12 12 10 8 8 8 9 10 11 10 9 10 10 9 10 11 12 12 12
37 38 35 33 34 36 34 28 28 31 36 40 39 40 39 38 40 41 38 34 32 31 31 30 27 25 22 20 18 16 15 14 13 12 12 13 13 14 15 14 12 11 10 11 11 11 10 10 11 12 13 15 15 14 14 14 14 14 16 17 18 16 14 13 13 13 12 12 12 12 12 10 9 8 8 8 10 10 9 8 9 9 9 10 10 11 11 11
39 38 33 30 30 35 34 26 26 33 42 43 41 41 39 38 40 40 36 32 29 29 28 26 23 22 21 20 18 16 16 15 14 13 12 14 14 15 15 13 11 10 11 11 12 12 11 11 12 12 13 14 15 14 14 13 13 15 15 15 15 14 13 13 13 13 12 12 13 13 12 10 9 8 8 8 8 8 7 7 8 8 9 9 10 10 11 11
40 36 33 29 27 30 31 25 24 34 45 45 42 40 38 38 40 39 34 29 27 26 25 24 21 21 20 20 18 16 17 16 16 15 13 14 14 15 14 11 11 10 11 11 12 12 11 12 12 12 12 13 14 13 13 13 12 15 15 14 14 13 13 13 13 13 13 13 13 13 12 11 9 8 8 8 8 7 7 7 7 8 9 9 10 10 10 10
39 36 34 30 26 25 26 24 23 33 45 45 43 40 38 38 39 37 31 28 26 24 23 22 21 20 19 18 17 17 18 17 17 15 14 14 14 15 14 11 11 10 10 11 11 12 11 12 12 11 11 12 12 12 12 12 12 14 14 13 13 13 12 12 13 13 12 12 12 12 12 11 10 9 8 8 7 7 7 7 7 8 9 9 10 10 10 10
39 35 34 30 25 24 24 24 24 33 45 45 44 41 38 38 37 34 29 26 25 23 22 21 20 19 18 17 16 17 17 16 16 15 15 15 15 14 13 11 11 10 10 11 11 11 11 11 11 10 11 11 11 12 12 11 12 12 12 12 12 12 12 12 12 12 12 12 12 12 13 11 9 9 8 7 7 7 7 7 7 8 8 9 9 9 10 10
39 34 34 30 24 23 23 24 25 35 45 45 44 41 37 36 35 33 28 25 24 23 22 21 20 19 17 17 16 16 15 15 16 15 15 16 15 14 12 11 10 10 9 10 10 10 10 10 11 10 10 10 11 12 12 11 11 11 12 12 12 12 11 11 11 11 12 12 12 12 13 11 9 9 8 7 7 7 7 7 7 8 8 8 8 9 10 10
41 35 33 29 24 23 22 23 28 38 46 45 43 40 36 36 34 31 27 26 25 24 22 21 21 20 18 17 16 16 16 16 17 15 14 15 15 13 12 11 11 10 9 10 10 10 10 9 10 9 9 10 10 11 11 10 10 11 11 11 11 12 11 11 11 11 11 12 12 12 12 10 9 9 9 7 7 7 7 7 7 8 8 8 8 9 10 10
41 36 31 29 24 23 22 23 31 42 47 44 42 38 36 36 34 30 28 27 26 24 22 21 21 20 19 18 17 16 17 18 18 16 15 15 14 12 12 12 11 11 10 10 9 10 9 9 9 9 9 9 10 11 10 10 10 10 10 11 13 13 11 11 11 11 10 12 11 10 10 9 10 10 8 7 7 7 7 7 8 8 8 8 9 9 9 10
41 35 31 28 24 23 22 24 34 43 44 40 38 38 38 37 34 31 30 29 28 26 23 22 21 20 19 18 17 17 19 20 18 17 17 16 14 13 12 12 12 11 10 10 10 10 10 9 9 9 9 10 11 10 10 10 10 10 11 12 13 13 11 11 12 12 11 12 11 9 8 10 10 9 7 8 8 8 8 8 8 8 8 8 8 9 9 9
41 36 32 29 24 23 22 26 37 43 40 37 37 39 40 38 35 33 33 32 30 28 25 23 22 20 19 18 18 17 19 21 19 18 18 16 14 13 13 12 12 11 11 11 11 10 10 10 9 9 10 11 11 11 12 12 11 12 11 14 17 13 12 13 13 13 11 12 11 8 9 10 9 7 7 8 8 8 8 8 8 8 8 8 8 8 8 9
44 38 34 30 25 23 22 26 39 43 39 37 38 42 43 41 37 35 34 33 32 30 28 25 23 22 20 18 18 17 18 21 20 17 17 16 14 14 13 13 13 12 11 12 12 11 11 10 9 10 11 11 11 12 15 15 16 16 11 15 18 13 13 15 13 14 12 11 11 8 9 10 8 8 9 8 8 8 8 8 8 8 8 8 9 9 8 8
48 41 35 31 26 24 22 25 38 43 40 38 38 42 45 41 37 35 34 33 33 31 29 26 24 24 23 20 19 18 18 21 19 17 16 15 14 14 13 14 14 13 12 12 12 11 11 10 10 11 11 12 13 14 16 16 18 18 14 15 17 13 13 14 13 13 12 12 11 9 9 10 9 8 9 9 9 8 8 8 8 8 9 9 8 8 9 8
50 43 37 32 27 25 22 23 35 43 40 38 38 41 45 43 37 35 33 32 32 31 29 27 25 25 24 23 22 19 19 21 19 16 15 15 14 14 14 14 14 13 13 12 12 11 11 11 10 12 12 14 15 15 15 15 15 17 17 16 17 16 14 13 14 14 13 12 12 11 11 11 11 9 8 8 8 9 9 8 8 9 8 9 9 8 9 8
50 44 38 34 29 26 24 22 32 42 41 39 38 40 45 45 38 35 33 31 31 31 30 28 27 27 25 24 23 21 20 21 20 17 16 15 15 14 14 14 14 13 13 12 12 11 11 12 12 14 15 14 14 14 14 16 15 14 15 14 14 16 13 13 15 15 14 13 12 13 12 11 12 11 9 8 9 9 9 9 8 8 8 8 9 8 9 8
52 46 41 36 31 28 25 22 29 40 40 39 39 38 43 46 41 37 34 32 33 32 32 29 27 27 25 23 23 22 21 21 21 19 17 16 15 15 15 14 13 13 13 13 13 12 12 13 13 15 15 14 13 12 13 16 15 14 15 15 15 16 15 15 15 16 16 14 14 14 13 13 13 12 11 9 10 9 9 9 8 7 7 7 8 8 9 9
54 49 43 38 33 30 27 23 27 38 38 38 40 37 41 48 46 43 38 34 35 34 33 30 27 26 25 22 22 22 21 22 22 21 19 17 15 15 14 14 14 14 14 16 15 14 14 14 14 15 14 13 13 12 15 17 16 15 17 18 17 16 14 15 16 17 17 14 16 17 16 15 14 13 12 10 10 10 9 8 8 7 7 7 7 8 8 9
56 51 45 39 35 31 29 24 25 34 37 36 39 38 37 44 46 44 40 37 37 34 32 31 28 26 25 23 22 21 20 21 22 22 20 18 17 16 15 15 16 16 18 18 16 15 14 15 15 15 15 14 15 17 17 17 17 16 16 17 16 16 15 15 16 18 17 14 16 19 17 14 14 13 12 11 10 10 9 8 8 7 7 7 7 7 8 8
58 52 47 40 35 32 29 26 24 31 37 35 37 39 36 39 42 40 38 39 38 36 33 30 28 27 25 24 23 21 20 21 22 22 21 20 18 17 17 17 17 18 20 18 16 15 15 16 16 16 17 17 18 19 17 17 19 18 18 16 16 18 17 16 17 19 18 15 17 20 17 14 14 13 12 12 12 10 9 9 8 8 8 7 7 7 8 7
59 52 50 41 35 32 28 27 24 27 35 35 35 39 39 38 41 38 37 40 40 37 33 30 28 27 25 26 24 21 20 20 21 22 21 20 19 18 18 18 19 21 20 17 17 17 16 17 17 17 17 16 17 18 17 17 19 20 19 17 16 18 18 17 16 18 19 17 18 19 16 13 13 13 13 11 11 10 9 9 8 8 8 7 7 7 8 7
62 53 50 43 35 32 30 29 27 26 33 36 34 36 40 40 40 37 36 39 40 37 33 29 28 26 25 26 24 22 21 20 20 21 20 20 19 19 19 19 20 21 20 19 18 17 17 18 19 18 16 16 16 16 17 17 17 20 24 22 19 20 21 19 18 20 20 19 20 17 13 15 16 15 14 12 11 10 8 8 7 7 7 7 7 7 7 8
66 56 50 43 37 34 35 34 30 25 29 35 35 33 37 42 41 36 36 40 40 37 34 31 29 27 27 26 26 24 22 21 22 21 20 20 19 19 20 20 20 21 21 21 18 17 17 18 19 17 17 18 17 17 18 18 17 18 23 25 22 23 23 22 21 21 20 18 19 17 14 20 21 17 14 13 13 11 8 8 7 6 6 6 6 6 6 7
67 60 50 44 42 41 40 36 31 26 26 33 36 32 33 40 42 36 36 42 42 38 36 33 31 30 29 29 28 25 24 24 24 23 22 21 20 19 20 20 20 22 23 21 20 20 20 21 22 20 19 19 17 17 18 19 19 17 20 23 24 26 24 23 21 19 19 17 18 20 16 18 18 14 14 15 14 12 10 9 8 7 7 7 7 7 6 7
66 61 52 49 48 42 38 34 30 28 27 30 35 33 31 36 42 39 37 43 45 41 39 37 34 34 34 32 30 27 28 29 26 25 24 23 21 19 21 22 21 22 24 21 21 22 22 22 23 22 22 21 18 17 18 19 18 17 22 25 26 25 24 26 24 22 23 18 20 25 20 15 15 13 15 16 13 11 10 9 9 8 10 9 8 8 7 7
65 61 57 57 51 41 36 33 29 28 28 27 31 35 31 32 39 42 42 44 45 43 41 40 38 38 39 36 32 29 30 30 28 28 26 24 23 21 22 24 23 24 24 21 20 22 23 24 22 22 23 21 19 20 20 19 19 21 26 28 27 27 27 29 27 25 24 17 18 25 18 15 17 16 17 16 10 9 10 10 10 10 11 11 10 10 8 8
67 64 63 62 54 45 39 34 29 29 30 27 29 33 34 32 34 42 48 47 43 42 42 42 42 43 43 39 36 33 31 31 30 30 27 25 23 21 22 24 24 27 25 22 24 24 25 25 23 22 20 20 23 27 26 21 20 25 28 28 27 29 30 29 27 25 22 19 21 24 19 15 17 17 18 14 9 10 11 11 11 10 10 11 11 10 10 9
69 67 67 65 59 50 42 36 31 31 32 29 28 31 35 35 33 39 49 48 45 44 43 44 45 46 45 42 40 37 35 34 33 31 29 27 24 21 23 23 23 27 27 28 29 28 27 25 25 24 21 23 27 30 30 27 25 26 27 26 24 28 30 29 30 25 21 25 27 25 23 18 14 16 17 12 10 11 11 11 11 10 10 10 10 11 10 10
69 67 67 66 63 54 44 38 34 34 34 31 31 32 34 38 37 38 42 41 45 48 46 45 48 49 47 44 43 40 38 38 35 32 30 28 26 24 24 24 24 28 29 28 29 29 27 25 26 26 24 27 28 28 28 29 29 27 27 26 22 27 29 29 31 23 21 31 28 24 26 21 16 16 14 11 13 13 12 11 11 11 11 10 10 11 11 11
69 70 68 65 65 59 47 40 37 36 34 32 34 33 33 39 41 38 35 35 40 47 47 47 49 51 50 47 46 45 42 40 36 33 33 32 29 27 26 25 26 29 28 28 28 28 27 27 27 27 26 26 26 28 28 28 31 28 27 27 24 26 25 28 36 29 24 30 25 22 25 21 18 15 11 12 13 13 13 12 11 11 11 11 11 11 11 11
70 69 68 64 65 63 52 43 38 37 36 35 34 34 36 41 40 37 36 35 37 41 43 45 49 52 53 52 51 48 44 41 37 34 34 32 30 29 28 28 28 27 27 29 29 27 28 30 29 26 26 25 23 25 27 27 29 25 24 24 24 26 24 28 37 31 24 26 24 25 25 21 19 14 12 14 11 11 12 11 12 12 11 12 11 11 12 12
74 71 68 66 66 65 59 49 41 38 37 36 33 35 39 39 36 37 39 38 39 41 41 43 46 49 53 55 54 50 46 42 37 34 34 33 31 30 29 28 28 28 28 30 29 28 28 30 29 26 26 25 23 24 26 26 25 24 26 23 21 26 25 25 29 25 24 27 25 24 23 21 18 13 14 16 12 12 13 11 13 12 12 12 11 12 12 12
80 77 72 70 68 67 63 53 44 40 39 37 35 37 37 34 35 35 36 40 44 43 41 41 43 46 51 56 56 52 48 46 40 35 34 32 30 30 28 25 27 30 28 27 28 28 27 26 28 29 27 26 25 25 26 25 24 27 28 23 19 22 23 22 25 26 26 25 24 24 22 21 18 12 15 17 14 14 13 12 14 13 13 13 12 13 13 12
80 81 77 72 69 69 66 57 48 43 41 38 37 38 35 33 37 35 32 36 41 41 42 43 44 47 49 54 57 55 51 50 47 40 35 32 30 29 27 24 26 27 24 24 28 29 26 25 29 29 27 28 27 26 25 24 23 25 24 23 24 25 23 21 22 27 26 20 21 22 20 20 16 11 14 16 13 12 12 12 12 12 13 13 13 14 13 13
79 81 80 75 72 72 70 64 55 47 43 40 38 38 37 36 40 40 35 33 35 36 39 43 46 47 48 50 54 54 52 54 53 46 39 34 31 29 28 25 24 23 23 23 26 28 27 28 30 30 27 28 28 26 26 25 24 25 25 23 24 23 23 20 19 27 31 24 24 23 19 18 16 14 15 14 11 11 12 12 11 11 12 12 14 13 13 13
83 82 80 77 74 73 72 70 63 53 47 44 41 43 44 42 41 43 39 32 31 34 35 38 42 43 45 47 50 51 52 54 55 51 46 39 32 29 27 25 24 22 22 22 22 25 27 28 30 33 31 31 30 27 27 27 25 26 26 24 22 23 23 20 18 25 27 25 28 28 22 18 16 17 16 11 11 12 12 12 12 11 11 12 14 14 13 14
90 87 83 79 75 74 75 74 68 60 55 50 45 46 49 46 43 44 41 35 34 34 32 34 36 37 39 41 43 47 50 53 55 55 51 43 34 29 27 25 25 24 21 21 22 24 27 28 29 33 34 33 33 29 28 29 27 26 25 23 25 28 26 22 21 22 19 22 30 28 24 21 17 18 15 9 12 13 10 11 12 11 12 13 14 13 13 14
94 91 88 85 80 76 75 76 72 67 62 56 52 51 51 48 45 44 41 38 39 36 34 37 36 33 35 36 36 39 43 48 51 53 55 49 36 30 28 25 26 27 24 23 25 26 27 25 26 33 35 35 36 33 29 29 27 27 25 24 25 27 26 23 24 23 20 25 32 28 26 25 19 17 16 11 12 13 11 13 14 13 13 13 13 13 13 14
95 94 92 89 83 77 76 80 78 72 66 62 61 60 57 53 50 48 43 41 43 40 38 41 39 34 35 35 33 34 37 41 43 45 53 53 40 31 29 26 26 28 26 24 26 27 26 25 28 37 38 35 36 36 33 31 29 26 24 23 23 24 25 24 25 26 22 23 28 25 23 23 19 16 16 14 13 13 12 14 14 14 14 14 13 13 14 15
96 97 96 92 86 80 80 86 83 76 72 69 65 64 62 59 56 52 46 42 44 45 43 44 43 40 37 34 33 34 35 37 38 38 42 49 45 36 31 28 26 27 27 26 26 27 29 31 34 38 38 35 35 37 39 37 33 30 28 26 25 23 23 22 23 27 25 23 26 26 23 22 21 20 18 16 15 13 12 14 15 16 15 15 15 15 16 16
94 96 98 96 93 88 88 92 87 81 79 75 70 69 68 69 67 61 55 50 47 47 46 47 46 41 39 37 35 35 34 35 37 35 34 42 47 42 34 30 29 29 29 28 27 27 29 31 31 34 39 40 37 36 40 39 34 32 32 32 30 26 25 26 28 28 26 24 26 26 25 23 24 24 20 17 16 13 14 17 17 17 16 16 16 17 17 17
92 95 98 98 97 95 96 97 92 87 86 82 80 79 77 77 77 74 69 63 59 57 53 51 47 43 44 45 39 35 35 34 35 34 33 37 43 42 38 34 33 33 31 29 28 28 28 31 32 36 43 44 41 41 41 40 37 36 36 35 32 32 31 31 30 26 24 25 25 24 26 26 24 24 20 18 18 17 17 19 18 17 17 16 17 18 18 19
90 94 97 98 98 98 98 98 95 94 93 90 89 88 84 81 81 80 78 73 70 68 63 59 54 51 51 50 44 40 39 36 35 35 36 37 38 41 42 38 35 34 33 31 30 28 31 34 33 35 39 40 40 40 37 36 38 38 40 38 34 35 33 28 29 28 26 27 26 22 23 24 22 21 18 19 22 20 20 21 20 18 18 18 19 21 22 23
83 91 96 98 99 99 98 97 96 98 98 95 96 95 91 88 85 83 82 79 76 72 70 69 65 62 59 53 48 44 41 42 42 38 38 37 38 41 43 39 36 34 33 33 32 35 40 40 33 32 32 29 30 33 34 35 37 37 38 37 35 35 32 31 34 31 26 29 28 22 21 21 19 19 19 20 23 24 22 21 19 18 19 22 23 23 25 26
69 81 90 94 97 98 99 98 96 97 97 96 97 96 93 93 93 90 87 84 82 77 76 76 72 70 68 62 57 51 45 47 47 43 41 41 41 43 42 40 39 36 35 34 33 39 44 41 37 35 32 29 30 34 36 36 34 34 35 36 35 33 33 34 33 27 25 30 28 22 22 21 19 21 22 21 23 25 24 21 20 21 22 25 26 26 26 27
56 68 78 85 91 93 96 98 97 96 96 97 96 95 94 95 95 95 93 92 89 83 82 82 77 73 74 71 67 62 56 52 50 49 49 46 46 46 43 42 42 40 40 39 36 40 42 38 38 37 34 34 36 39 38 35 33 34 35 35 34 34 34 34 30 25 26 28 23 21 24 21 18 21 22 21 23 24 24 23 23 25 26 27 26 26 27 28
49 56 63 72 81 86 89 94 96 97 98 97 97 96 96 96 93 93 94 96 94 90 87 84 79 77 80 77 74 72 68 60 54 54 52 50 51 50 47 47 46 43 43 43 41 42 41 40 41 38 33 35 39 42 41 36 34 34 35 35 34 35 33 31 28 26 27 27 23 24 27 22 19 22 22 22 24 24 24 25 26 27 28 28 28 29 30 31
45 47 51 57 66 76 84 88 91 96 98 97 98 96 93 93 93 93 94 94 93 94 91 85 82 83 85 83 81 80 76 70 67 65 62 58 56 55 54 53 51 49 49 48 47 45 40 43 45 39 35 38 41 43 43 40 37 35 36 37 37 36 34 32 29 28 30 31 26 28 32 26 21 23 22 21 24 25 26 26 26 27 29 29 31 33 34 35
44 44 44 46 53 63 74 80 83 90 94 93 95 94 92 92 91 92 94 91 89 91 90 85 85 88 88 88 86 81 78 79 80 77 74 71 68 65 64 61 58 58 57 55 56 52 46 48 49 44 43 43 42 45 46 43 41 40 41 41 39 36 34 32 30 30 31 31 29 31 32 26 22 23 24 25 26 27 28 27 28 30 31 32 35 36 38 39
43 43 41 42 47 51 58 66 73 78 81 82 86 90 91 92 91 92 94 93 89 90 91 90 90 92 93 90 84 78 79 83 85 84 81 79 77 74 72 69 66 66 68 67 66 63 57 55 55 53 52 49 49 52 49 49 54 52 42 36 37 36 34 33 33 32 31 30 31 32 28 25 27 29 29 32 34 32 32 33 34 35 36 38 40 41 42 43